Regional Weather Roundup
Issued by NWS

Home | Current Version | Previous Version | Text Only | Print | Product List | Glossary Off
Versions: 1 2 3 4 5 6 7 8 9 10 11 12 13 14 15 16 17 18 19 20 21 22 23 24 25 26 27 28 29 30 31 32 33 34 35 36 37 38 39 40 41 42 43 44 45 46 47 48 49 50

000
ASUS43 KLSX 240507
RWRMO

WEATHER SUMMARY FOR MISSOURI
NATIONAL WEATHER SERVICE SPRINGFIELD MO
1200 AM CDT MON APR 24 2017

NOTE: "FAIR" INDICATES FEW OR NO CLOUDS BELOW 12,000 FEET WITH NO
       SIGNIFICANT WEATHER AND/OR OBSTRUCTIONS TO VISIBILITY.
       CURRENT SKY AND/OR WEATHER CONDITIONS ARE NOT AVAILABLE FOR
       CHILLICOTHE AND FARMINGTON.

MOZ001>031-035>038-043-044-053-054-240600-
...NORTHERN AND WESTERN MISSOURI...

CITY           SKY/WX    TMP DP  RH WIND       PRES   REMARKS
KANSAS CTY INT PTCLDY    48  37  65 S7        29.97F
KANSAS C DTWN  CLEAR     59  36  42 SW3       29.97F
LEE`S SUMMIT   CLOUDY    57  35  43 SW3       29.98F
ST JOSEPH      CLOUDY    51  39  63 CALM      29.96F
CHILLICOTHE      N/A     47  39  74 CALM      30.00S
KIRKSVILLE     CLEAR     51  31  46 S3        30.00F

$$
MOZ066>068-077>081-088>096-101>105-240600-
...SOUTHWEST MISSOURI...

CITY           SKY/WX    TMP DP  RH WIND       PRES   REMARKS
SPRINGFIELD    CLEAR     46  38  73 CALM      29.98S
JOPLIN         PTCLDY    44  43  96 CALM      29.99F
BRANSON        CLEAR     48  37  66 CALM      29.99S

$$
MOZ032>034-039>042-045>050-055>058-069>072-240600-
...CENTRAL MISSOURI...

CITY           SKY/WX    TMP DP  RH WIND       PRES   REMARKS
COLUMBIA       CLEAR     53  30  41 CALM      30.00S
JEFFERSON CITY CLEAR     47  38  71 CALM      30.00S
ROLLA          CLEAR     47  36  65 CALM      29.98F
WHITEMAN AFB   CLEAR     48  40  74 S5        29.98S
OSAGE BEACH    CLEAR     46  39  76 CALM      30.00S

$$
MOZ051-052-059>065-240600-
...EAST CENTRAL MISSOURI...

CITY           SKY/WX    TMP DP  RH WIND       PRES   REMARKS
ST LOUIS INTL  CLEAR     52  37  56 CALM      29.99F
SPIRIT OF STL  CLEAR     42  40  92 SW3       29.99S
ST CHARLES     CLEAR     48  38  68 CALM      29.98S

$$
MOZ072>076-082>087-097>100-106>115-240600-
...SOUTH CENTRAL AND SOUTHEAST MISSOURI...

CITY           SKY/WX    TMP DP  RH WIND       PRES   REMARKS
CAPE GIRARDEAU CLEAR     47  40  76 MISG      29.94S
FARMINGTON     CLEAR     46  39  76 CALM      29.97F
POPLAR BLUFF   CLEAR     53  40  61 N3        29.93F
WEST PLAINS    CLEAR     49  35  58 N5        29.99F

$$




USA.gov is the U.S. government's official web portal to all federal, state and local government web resources and services.